Tracking 29069 objects as of 18-Jul-2024
HD Live streaming from Space Station
objects crossing your sky now

INTASAT

Track INTASAT now!
10-day predictions
INTASAT is classified as:


NORAD ID: 7531
Int'l Code: 1974-089C
Perigee: 1,447.9 km
Apogee: 1,466.2 km
Inclination: 102.0 °
Period: 114.9 minutes
Semi major axis: 7828 km
RCS: 0.5293 m2 (medium)
Launch date: November 15, 1974
Source: Spain (SPN)
Launch site: AIR FORCE WESTERN TEST RANGE (AFWTR)
Your satellite tracking list
Your tracking list is empty




NASA's NSSDC Master Catalog

Two Line Element Set (TLE):
1  7531U 74089C   24199.95023302 -.00000017  00000-0  18310-3 0  9998
2  7531 101.9789 194.1374 0011673  37.8245  17.9790 12.53501004272891
Source of the keplerian elements: AFSPC